"Pseudo-MPEC" for P10HMQ7

Created 2018 Jun 17 17:18:14 UT using Find_Orb

Click here for an explanation of pseudo-MPECs

 
 Astrometry: 
     P10HMQ7  C2018 06 13CHAstrometryNKSlZ:^(5q.wgFsM[m41%12FJMguJ6$uCJ/8.7M%F51
     P10HMQ7  C2018 06 13y$lwt[jbFEAWWB\^/WbE57C`G[n8.NlftlcnM-0M,R*=t@U)x=)gF51
     P10HMQ7  C2018 06 13UMVavHIJ:5x,RG3_Wredacted;`lcE/]eeA=\$+k^2!EbJHfd7eKF51
     P10HMQ7  C2018 06 14.34115 20 15 47.57 -17 15 33.2          21.0 GUNEOCPI52
     P10HMQ7  C2018 06 14.34304 20 15 47.63 -17 15 26.7          20.5 GUNEOCPI52
     P10HMQ7  C2018 06 14.34493 20 15 47.57 -17 15 18.9          20.4 GUNEOCPI52
     P10HMQ7 ^C2018 06 14.52864420 15 52.127-17 04 06.56         20.69GVNEOCP568
     P10HMQ7 ^C2018 06 14.52958920 15 52.145-17 04 03.17         20.74GVNEOCP568
     P10HMQ7 ^C2018 06 14.53054020 15 52.161-17 03 59.66         20.67GVNEOCP568
     P10HMQ7 |C2018 06 15i28Niyt-x^D=#e5_Ct+',,IV(5u?.287VkeciI-aMv@JJK,0WfYh807
     P10HMQ7 |C2018 06 15oo=ho=Q\UB8G-Uj1+7C[Wn+(T:@u(ijEX:/vq+hr8C=I9H;]^r+i807
     P10HMQ7 |C2018 06 15U_+oY[QIKP[elD;=O)6A-E@/`Wm2]g!Bsee64#A7)qrHcpd'EGqA807
     P10HMQ7 KC2018 06 16N$fHgLY[^urP:p8V!c(IMyg.x5Y?=]_?J1x_JMWP#ruj8QE4n)3\H21
     P10HMQ7 KC2018 06 16keqJ_haD-e0+KZX\d5.0R1wgPlp=(;\SeAA@Nk*YpdkS(Z;NEOCPH21

Station data:
(568) Mauna Kea  (N19.826116 W155.472200)  US/Hawaii.
(807) Cerro Tololo Observatory, La Serena  (S30.169136 W70.805900)  Chile.
   1.5-m Ritchey-Chrétien.
(F51) Pan-STARRS 1, Haleakala  (N20.707235 W156.255910)  US/Hawaii.
   Observers N. Primak, A. Schultz, S. Watters, J. Thiel, T. Goggia. Measurer
   PS1 Science Consortium. 1.8-m Ritchey-Chrétien + CCD.
(H21) Astronomical Research Observatory, Westfield  (N39.483057 W87.968270)
   US/Illinois. 0.76-m f/3.0 astrograph + CCD.
(I52) Steward Observatory, Mt. Lemmon Station  (N32.442547 W110.788920)
   US/Arizona.  Observers B. M. Africano, E. J. Christensen, D. C. Fuls, A.
   R. Gibbs, A. D. Grauer, J. A. Johnson, R. A. Kowalski, S. M. Larson, G. J.
   Leonard, R. L. Seaman, F. C. Shelly. 1.0-m reflector + CCD.

Orbital elements:  P10HMQ7
   Perihelion 2018 Aug 13.741735 +/- 0.427 TT = 17:48:05 (JD 2458344.241735)
Epoch 2018 Jun 16.0 TT = JDT 2458285.5   Earth MOID: 0.3182   Ma: 0.0369
M 343.52407 +/- 0.6                 (J2000 ecliptic)          AutoNEOCP
n   0.28048080 +/- 0.00939          Peri.   50.56365 +/- 0.40
a   2.31135838 +/- 0.0516           Node   272.85476 +/- 0.09
e   0.4668904 +/- 0.0104            Incl.   24.99027 +/- 0.25
P   3.51                   H 20.9   G  0.15   U  9.6  
q 1.23220728 +/- 0.0038    Q 3.39050948 +/- 0.103
From 14 observations 2018 June 13-16; mean residual 0".29
Residuals in arcseconds: 
180613 F51  .03-  .00     180614 I52  1.1-  .55+    180615 807  .07+  .11+    
180613 F51  .07+  .02+    180614 568  .17+  .05-    180615 807  .06+  .13+    
180613 F51  .02+  .02+    180614 568  .18+  .11-    180616 H21  .44-  .25+    
180614 I52  .04+  .05-    180614 568  .17+  .08-    180616 H21  .33+  .27-    
180614 I52  .35+  .40-    180615 807  .10+  .11-    

Ephemerides (geocentric):
Date (UTC) HH   RA              Dec         delta   r     elong  mag " sig PA
---- -- -- --  -------------   -----------  ------ ------ -----  --- ---- ---
2018 06 17 17  20 17 00.988   -13 40 36.81  .41320 1.3670 142.5 20.9  .88 127
2018 06 17 18  20 17 01.698   -13 37 49.46  .41292 1.3668 142.5 20.9  .91 127
2018 06 17 19  20 17 02.404   -13 35 01.91  .41264 1.3666 142.5 20.9  .94 127
2018 06 17 20  20 17 03.105   -13 32 14.16  .41237 1.3665 142.5 20.9  .97 127
2018 06 17 21  20 17 03.800   -13 29 26.22  .41209 1.3663 142.5 20.9  1.0 127
2018 06 17 22  20 17 04.491   -13 26 38.09  .41181 1.3661 142.6 20.9  1.0 127
2018 06 17 23  20 17 05.177   -13 23 49.76  .41153 1.3659 142.6 20.9  1.1 126
2018 06 18 00  20 17 05.857   -13 21 01.24  .41126 1.3657 142.6 20.9  1.1 126
2018 06 18 01  20 17 06.533   -13 18 12.53  .41098 1.3656 142.6 20.9  1.1 126
2018 06 18 02  20 17 07.203   -13 15 23.62  .41071 1.3654 142.6 20.9  1.2 126
2018 06 18 03  20 17 07.869   -13 12 34.51  .41043 1.3652 142.7 20.9  1.2 126
2018 06 18 04  20 17 08.530   -13 09 45.22  .41016 1.3650 142.7 20.9  1.2 126
2018 06 18 05  20 17 09.185   -13 06 55.72  .40988 1.3648 142.7 20.9  1.3 126
2018 06 18 06  20 17 09.836   -13 04 06.04  .40961 1.3647 142.7 20.9  1.3 126
2018 06 18 07  20 17 10.481   -13 01 16.16  .40933 1.3645 142.7 20.9  1.3 126
2018 06 18 08  20 17 11.122   -12 58 26.08  .40906 1.3643 142.8 20.9  1.4 126
2018 06 18 09  20 17 11.758   -12 55 35.81  .40879 1.3641 142.8 20.9  1.4 125
2018 06 18 10  20 17 12.388   -12 52 45.35  .40852 1.3639 142.8 20.9  1.5 125
2018 06 18 11  20 17 13.014   -12 49 54.69  .40824 1.3638 142.8 20.8  1.5 125
2018 06 18 12  20 17 13.634   -12 47 03.84  .40797 1.3636 142.8 20.8  1.5 125
2018 06 18 13  20 17 14.250   -12 44 12.80  .40770 1.3634 142.8 20.8  1.6 125
2018 06 18 14  20 17 14.860   -12 41 21.56  .40743 1.3632 142.9 20.8  1.6 125
2018 06 18 15  20 17 15.466   -12 38 30.13  .40716 1.3631 142.9 20.8  1.7 125
2018 06 18 16  20 17 16.066   -12 35 38.51  .40689 1.3629 142.9 20.8  1.7 125
2018 06 18 17  20 17 16.662   -12 32 46.69  .40662 1.3627 142.9 20.8  1.7 125
2018 06 18 18  20 17 17.252   -12 29 54.68  .40635 1.3625 142.9 20.8  1.8 125
2018 06 18 19  20 17 17.838   -12 27 02.47  .40609 1.3623 143.0 20.8  1.8 125
2018 06 18 20  20 17 18.418   -12 24 10.07  .40582 1.3622 143.0 20.8  1.9 125
2018 06 18 21  20 17 18.994   -12 21 17.48  .40555 1.3620 143.0 20.8  1.9 125
2018 06 18 22  20 17 19.564   -12 18 24.69  .40528 1.3618 143.0 20.8  2.0 125
2018 06 18 23  20 17 20.129   -12 15 31.72  .40502 1.3616 143.0 20.8  2.0 125
2018 06 19 00  20 17 20.690   -12 12 38.55  .40475 1.3615 143.0 20.8  2.0 125
2018 06 19 01  20 17 21.245   -12 09 45.18  .40449 1.3613 143.1 20.8  2.1 125
2018 06 19 02  20 17 21.796   -12 06 51.62  .40422 1.3611 143.1 20.8  2.1 124
2018 06 19 03  20 17 22.341   -12 03 57.87  .40396 1.3609 143.1 20.8  2.2 124
2018 06 19 04  20 17 22.882   -12 01 03.93  .40369 1.3607 143.1 20.8  2.2 124
2018 06 19 05  20 17 23.417   -11 58 09.80  .40343 1.3606 143.1 20.8  2.3 124
2018 06 19 06  20 17 23.948   -11 55 15.47  .40317 1.3604 143.2 20.8  2.3 124
2018 06 19 07  20 17 24.473   -11 52 20.95  .40290 1.3602 143.2 20.8  2.4 124
2018 06 19 08  20 17 24.993   -11 49 26.23  .40264 1.3600 143.2 20.8  2.4 124
2018 06 19 09  20 17 25.509   -11 46 31.33  .40238 1.3599 143.2 20.8  2.5 124
2018 06 19 10  20 17 26.019   -11 43 36.23  .40212 1.3597 143.2 20.8  2.5 124
2018 06 19 11  20 17 26.525   -11 40 40.94  .40185 1.3595 143.2 20.8  2.6 124
2018 06 19 12  20 17 27.025   -11 37 45.46  .40159 1.3593 143.3 20.8  2.6 124
2018 06 19 13  20 17 27.520   -11 34 49.79  .40133 1.3592 143.3 20.8  2.7 124
2018 06 19 14  20 17 28.011   -11 31 53.92  .40107 1.3590 143.3 20.8  2.7 124
2018 06 19 15  20 17 28.496   -11 28 57.86  .40081 1.3588 143.3 20.8  2.8 124
2018 06 19 16  20 17 28.977   -11 26 01.61  .40056 1.3586 143.3 20.8  2.8 124